FENGYUN 1C DEB

Satellite information

Favourite Embed

Satellite Type and Status

DEBRISIN ORBIT

Key statistics

Satellite FENGYUN 1C DEB at a glance.

Uptime

9715

Days in orbit

Revolutions

≈ 14.4

Per day

Orbit

SSO

Sun Synchronous Orbit

Inclination

98.9

Latest

Satellite identification and parameters

Extended collection of information and parameters for FENGYUN 1C DEB.

Object identification

Identified? True

Debris? True

Object name: FENGYUN 1C DEB

International designator: 1999-025CGH

Object number (NORAD): 31782

Object ID (CCSDS): 31782

Country: PEOPLES REPUBLIC OF CHINA (PRC)

Current information (Y/N): Y

RCS size: SMALL

Orbital parameters

Period: 100.262 minutes

Inclination: 98.9039 deg

SMA: 7149.111 km

Apoapsis: 827.822 km

Periapsis: 714.129 km

RAAN: 147.386 deg

Eccentricy: 0.00795156

Argument of periapsis: 358.569 deg

Mean anomaly: 182.0654 deg

Mean motion: 14.36232417 rev/day

Mean motion (dot): 0.00001624 rev/day2

B* drag term: 0.00055247789 1/REarth

Two-line elements (TLE)

Creation date: Dec. 12, 2025, 10:14 a.m.

Reference frame: TEME

Reference center: EARTH

Epoch: Dec. 12, 2025, 5:08 a.m. UTC

TLE line 0: 0 FENGYUN 1C DEB

TLE line 1: 1 31782U 99025CGH 25346.21428641 .00001624 00000-0 55248-3 0 9994

TLE line 2: 2 31782 98.9039 147.3860 0079516 358.5690 182.0654 14.36232417966835

Live tracking on map

Real-time ground track for satellite FENGYUN 1C DEB.

In-orbit conjunctions

A list of the most updated potential collisions computed for object FENGYUN 1C DEB.

Target Orbit TCA Probability of collision Miss distance Type
COSMOS 2251 DEB LEO 2024-11-13 04:21:06 0.0001050758 653.0 (m) DEBRIS
FENGYUN 1C DEB SSO 2024-11-12 07:27:29 0.0001349017 431.0 (m) DEBRIS

Associated space launch

Chinese polar orbiting meteorological satellite

FENGYUN 1C DEB was lifted into orbit during the mission ‘Long March 4B | Feng Yun 1C’, on board a Long March 4B space rocket.

The launch took place on May 10, 1999, 1:33 a.m. from Launch Complex 7.

For more information about the launch, click the button.

Launch to space Long March 4B | Feng Yun 1C
Long March 4B | Feng Yun 1C

Agency: N/A

Status: Launch Successful

Launch date: May 10, 1999, 1:33 a.m. UTC

Rocket: Long March 4B

Launch pad: Launch Complex 7

Location: Taiyuan Satellite Launch Center, People's Republic of China

...

Latest news about this satellite

There are no fresh news available about this satellite. Check back as we update our databases every day.


Newsletter sign-up

Weekly statistics, charts and insights to help you stay on top of the space industry.